www.pogodaiklimat.ru

Погода и климат >> Архив погоды >> Индия >> Тамилнад >> Тонди


ПОГОДА в Тонди

  • Прогноз погоды в Тонди
  • Монитор погоды в Тонди

АРХИВ ПОГОДЫ в Тонди

Время (UTC), дата Ветер
(напр.,м/с)
 
Видим.   Явления Облачность Т
(С)
Тd
(С)
f
(%)
Тe
(С)
Тes
(С)
Комфортность P
(гПа)
Po
(гПа)
Тmin
(С)
Tmax
(С)
R
(мм)
R24
(мм)
S
(см)
21 18.08 штиль 0 4000 м 9/4 600 м
[Cu Sc Ac As Ci sp]
+24.4 +21.1 82 +31 +31 очень
душно
1009.1 1008.5 2
00 19.08 штиль 0 4000 м 8/3 600 м
[Cu Sc Ac As Ci sp]
+25.2 +21.9 82 +32 +32 очень
душно
1008.9 1008.3 2
03 19.08 штиль 0 10 км 8/3 600 м
[Cu Sc Ac trans Ci sp]
+28.6 +23.7 75 +39 +44 очень
душно
1010.0 1009.4 +23.6 +33.2 2
06 19.08 Ю 3 10 км 9/3 600 м
[Cu Sc Ac trans Ci sp]
+32.2 +27.5 76 +51 +59 опасность
перегрева
1009.9 1009.3
09 19.08 Ю 3 10 км 6/3 600 м
[Cu Sc Ci ing]
+34.8 +28.3 69 +56 +65 опасность
перегрева
1007.4 1006.3
12 19.08 Ю 4 10 км 5/1 600 м
[Sc diur, vesp Ac trans Ci sp]
+30.0 +26.1 80 +45 +46 опасность
перегрева
1006.7 1006.1 +34.1
15 19.08 Ю 5 4000 м 6/3 600 м
[Cu Sc Ac As Ci sp]
+29.0 +25.3 80 +42 +42 опасность
перегрева
1009.0 1008.4
18 19.08 З 3 4000 м 9/4 600 м
[Cu Sc Ac As Ci sp]
+28.8 +25.1 80 +42 +42 опасность
перегрева
1009.8 1009.2
21 19.08 З 3 4000 м 5/3 600 м
[Cu Sc Ac As Ci sp]
+28.2 +25.1 83 +41 +41 опасность
перегрева
1007.8 1007.2
00 20.08 штиль 0 4000 м 6/3 600 м
[Cu Sc Ac As Ci sp]
+27.4 +24.2 83 +38 +38 очень
душно
1008.7 1008.1
03 20.08 Ю 2 10 км 5/3 600 м
[Cu Sc Ac trans Ci sp]
+30.0 +24.9 74 +43 +48 опасность
перегрева
1009.7 1009.1 +26.5 +34.1
06 20.08 Ю 2 10 км 9/5 600 м
[Cu Sc Ac trans Ci sp]
+33.4 +24.3 59 +46 +52 опасность
перегрева
1010.2 1009.6
09 20.08 Ю 3 10 км 9/4 600 м
[Cu Sc Ac trans Ci sp]
+32.8 +28.2 77 +54 +59 опасность
перегрева
1007.1 1006.5
12 20.08 Ю 6 10 км 9/3 600 м
[Cu Sc Ac As Ci sp]
+30.2 +26.6 81 +47 +47 опасность
перегрева
1005.6 1005.0 +34.6
15 20.08 штиль 0 4000 м гроза, ливневой дождь 10/4 600 м
[Cb cap Ac As]
+24.8 +21.5 82 +32 +32 очень
душно
1009.6 1009.0 9
18 20.08 Ю 2 4000 м {гроза, дождь} 10/4 600 м
[Cu Sc Ac As]
+27.4 +24.2 83 +38 +38 очень
душно
1009.3 1008.7 10
21 20.08 штиль 0 4000 м 10/4 600 м
[Cu Sc Ac As]
+26.0 +22.8 83 +35 +35 очень
душно
1007.4 1006.8 10
00 21.08 штиль 0 4000 м 6/3 600 м
[Cu Sc Ac As Ci sp]
+26.0 +22.8 83 +35 +35 очень
душно
1007.6 1007.0 10
03 21.08 З 2 10 км 5/3 600 м
[Cu Sc Ac trans Ci sp]
+28.4 +25.0 82 +41 +46 опасность
перегрева
1009.0 1008.4 +24.0 +34.6 10
06 21.08 Ю 1 10 км 6/3 600 м
[Cu Sc Ac trans Ci sp]
+33.0 +25.7 66 +48 +62 опасность
перегрева
1008.8 1008.2
09 21.08 Ю 2 10 км 5/3 600 м
[Cu Sc Ac trans Ci sp]
+33.6 +27.9 72 +54 +63 опасность
перегрева
1006.7 1006.1
12 21.08 Ю 2 10 км 6/4 600 м
[Cu Sc Ac trans Ci sp]
+32.0 +26.1 71 +48 +48 опасность
перегрева
1006.0 1005.4 +34.6
15 21.08 штиль 0 4000 м гроза, ливневой дождь 10/4 600 м
[Cb cap Ac As]
+26.0 +20.5 72 +32 +32 очень
душно
1008.4 1007.8 12
18 21.08 штиль 0 4000 м слаб. морось {гроза, дождь} 10/4 600 м
[Cu Sc Ac As]
+26.4 +23.8 86 +36 +36 очень
душно
1009.5 1008.9 13
21 21.08 штиль 0 4000 м 9/3 600 м
[Cu Sc Ac As Ci sp]
+27.0 +24.4 86 +38 +38 очень
душно
1007.9 1007.3 13
00 22.08 штиль 0 4000 м 6/3 600 м
[Cu Sc Ac As Ci sp]
+26.8 +24.2 86 +37 +37 очень
душно
1007.2 1006.6 13
03 22.08 Ю 1 10 км 9/4 600 м
[Cu Sc Ac As Ci sp]
+28.4 +23.5 75 +39 +42 очень
душно
1009.0 1008.4 +25.0 +34.6 13
06 22.08 Ю 1 10 км 8/3 600 м
[Cu Sc Ac As Ci sp]
+31.4 +24.9 68 +45 +56 опасность
перегрева
1009.0 1008.4
09 22.08 Ю 3 10 км 8/3 600 м
[Cu Sc Ac trans Ci sp]
+31.8 +27.0 76 +50 +56 опасность
перегрева
1006.4 1005.8
12 22.08 Ю 3 10 км 9/3 600 м
[Cu Sc Ac As Cs]
+30.0 +26.1 80 +45 +46 опасность
перегрева
1005.7 1005.1 +32.6
15 22.08 штиль 0 4000 м слаб. морось {гроза, дождь} 10/4 600 м
[Cu Sc Ac As]
+27.4 +23.9 81 +38 +38 очень
душно
1007.6 1007.0 0.3
18 22.08 З 3 4000 м {морось} 10/4 600 м
[Cu Sc Ac As]
+28.8 +23.3 72 +39 +39 очень
душно
1008.8 1008.2 0.4
21 22.08 штиль 0 4000 м 9/4 600 м
[Cu Sc Ac As]
+27.0 +24.4 86 +38 +38 очень
душно
1007.6 1007.0 0.4
00 23.08 штиль 0 4000 м 9/4 600 м
[Cu Sc Ac As]
+26.8 +24.2 86 +37 +37 очень
душно
1008.1 1007.5 0.4
03 23.08 Ю 1 10 км 9/4 600 м
[Cu Sc Ac As Cs]
+28.0 +23.0 74 +37 +40 очень
душно
1009.7 1009.1 +25.9 +32.7 0.4
06 23.08 Ю 2 10 км 8/3 600 м
[Cu Sc Ac trans Ci sp]
+33.0 +24.8 62 +46 +56 опасность
перегрева
1009.0 1008.4
09 23.08 Ю 3 10 км 8/3 600 м
[Cu Sc Ac As Ci sp]
+31.6 +24.8 67 +45 +51 опасность
перегрева
1007.4 1006.8
12 23.08 Ю 3 10 км 8/3 600 м
[Cu Sc Ac trans Ci sp]
+30.8 +26.6 78 +47 +48 опасность
перегрева
1006.8 1006.2 +34.8
15 23.08 З 2 4000 м 8/3 600 м
[Cu Sc Ac trans Ci sp]
+30.4 +25.6 76 +45 +45 опасность
перегрева
1009.1 1008.5
18 23.08 штиль 0 4000 м 8/3 600 м
[Cu Sc Ac trans Ci sp]
+29.4 +21.7 63 +37 +37 очень
душно
1009.7 1009.1
21 23.08 З 1 4000 м 8/3 600 м
[Cu Sc Ac trans Ci sp]
+28.0 +22.1 70 +36 +36 очень
душно
1008.9 1008.3
00 24.08 штиль 0 4000 м 8/3 600 м
[Cu Sc Ac trans Ci sp]
+27.4 +21.7 71 +35 +35 очень
душно
1008.6 1008.0
03 24.08 З 1 10 км 8/3 600 м
[Cu Sc Ac trans Ci sp]
+30.0 +24.3 72 +42 +46 опасность
перегрева
1010.2 1009.6 +26.4 +34.8
06 24.08 Ю 3 10 км 9/4 600 м
[Cu Sc Ac trans Ci sp]
+32.2 +27.2 75 +51 +57 опасность
перегрева
1009.2 1008.6
09 24.08 Ю 3 10 км 10/4 600 м
[Cu Sc Ac trans Cs]
+33.4 +25.2 62 +47 +51 опасность
перегрева
1006.9 1006.3
12 24.08 Ю 4 10 км 6/3 600 м
[Cu Sc Ac As Ci sp]
+31.0 +26.8 78 +48 +48 опасность
перегрева
1006.1 1005.5 +34.9
15 24.08 штиль 0 4000 м слаб. морось 10/4 600 м
[Cu Sc Ac As]
+27.4 +23.6 80 +37 +37 очень
душно
1008.3 1007.7 0.0
18 24.08 Ю 2 4000 м 9/4 600 м
[Cu Sc Ac As Ci sp]
+29.4 +25.4 79 +43 +43 опасность
перегрева
1008.9 1008.3 0.0
21 24.08 штиль 0 4000 м 10/4 600 м
[Cu Sc Ac As]
+28.4 +19.5 59 +34 +34 очень
душно
1007.7 1007.1 0.0
00 25.08 Ю 2 4000 м 8/4 600 м
[Cu Sc Ac As Ci sp]
+27.6 +20.3 64 +34 +34 очень
душно
1008.2 1007.6 0.0
03 25.08 штиль 0 10 км 9/4 600 м
[Cu Sc Ac trans Ci sp]
+29.8 +21.1 60 +37 +41 очень
душно
1009.8 1009.2 +25.5 +34.9 0.0
06 25.08 Ю 2 10 км 10/4 600 м
[Cu Sc Ac trans Ci sp]
+33.0 +25.1 63 +47 +53 опасность
перегрева
1008.7 1008.1
09 25.08 Ю 5 4000 м слаб. морось 10/4 600 м
[Cu Sc Ac As]
+31.2 +25.6 72 +46 +47 опасность
перегрева
1005.5 1004.9 0.0
12 25.08 Ю 4 10 км {дождь, морось} 9/4 600 м
[Cu Sc Ac As Ci sp]
+30.4 +26.8 81 +47 +47 опасность
перегрева
1005.5 1004.9 +35.0 0.3
15 25.08 штиль 0 4000 м {дождь, морось} 8/4 600 м
[Cu Sc Ac As Ci sp]
+27.8 +24.3 81 +39 +39 очень
душно
1008.2 1007.6 0.7
18 25.08 З 2 4000 м {дождь, морось} 9/4 600 м
[Cu Sc Ac As Ci sp]
+27.8 +22.8 74 +37 +37 очень
душно
1009.2 1008.6 0.7

 

Местоположение метеостанции Тонди (Тамилнад, Индия): широта 9.73 долгота 79.03 высота над уровнем моря 5 м.

В архиве по умолчанию представлена погода в Тонди за последнюю неделю. Архивные данные за месяц целиком и за предыдущие месяцы, начиная с января 2011 года, Вы можете получить, выбрав интересующий диапазон дат из раскрывающегося списка и нажав кнопку "Ввод!".


*Определитесь, кто Вы:
робот инопланетянин человек

Внимание! Время в таблицах - всемирное. Для получения местного времени необходимо прибавить поправку, которая равна 5.5 ч.

Смотрите также архив погоды в соседних городах и на ближайших метеорологических станциях:

Погода на Памбане (Тамилнад, Индия) (54 км)
Погода в Адирампаттинаме (Тамилнад, Индия) (77 км)
Погода в Кудумиянмалае (Тамилнад, Индия) (84 км)
Погода в Мадурае (Тамилнад, Индия) (102 км)
Погода в Мадурай аэропорту (Тамилнад, Индия) (105 км)
Погода в Ковилангуламе (Тамилнад, Индия) (106 км)
Погода в Джафне (Шри Ланка) (109 км)
Погода в Танджавуре (Тамилнад, Индия) (117 км)
Погода в Тиручирапалли (Тамилнад, Индия) (121 км)
Погода в Маннаре (Шри Ланка) (128 км)

Пояснения к столбцам:

Ветер - указаны скорость ветра в м/с - средняя за 10 мин, порывы в срок и между сроками (в фигурных скобках) и направление, откуда дует ветер: С - северный, СВ - северо-восточный, В - восточный, ЮВ - юго-восточный, Ю - южный, ЮЗ - юго-западный, З - западный, СЗ - северо-западный.
Видимость - горизонтальная дальность видимости в метрах или километрах. При видимости от 1 до 10 км при отсутствии осадков обычно наблюдается дымка, при ухудшении видимости до 1 км и менее - туман. В сухую погоду видимость может ухудшаться дымом, пылью или мглою.
Явления - указаны атмосферные явления, наблюдавшиеся в срок или в последний час перед сроком; фигурными скобками обозначены явления, наблюдавшиеся между сроками (за 1-3 часа до срока); квадратными скобками обозначены град или гололедные отложения с указанием их диаметра в мм.
Облачность - указаны через наклонную черту общая и нижняя облачность в баллах и высота нижней границы облаков в метрах; квадратными скобками обозначены формы облаков: Ci - перистые, Cs - перисто-слоистые, Cc - перисто-кучевые, Ac - высококучевые, As - высокослоистые, Sc - слоисто-кучевые, Ns - слоисто-дождевые, Cu - кучевые, Cb - кучево-дождевые. Подробнее классификацию облаков см. в Атласе облаков (PDF).
T - Температура воздуха - температура, измеренная на высоте 2 м над землей.
Td - Температура точки росы - температура, при понижении до которой содержащийся в воздухе водяной пар достигнет насыщения.
f - Относительная влажность воздуха - влажноcть воздуха, измеренная на высоте 2 м над землей.
Te - Эффективная температура - температура, которую ощущает одетый по сезону человек в тени. Характеристика душности погоды. При расчете учитывается влияние влажности воздуха и скорости ветра на теплоощущения человека.
Tes - Эффективная температура на солнце - температура, которую ощущает человек, с поправкой на солнечный нагрев. Характеристика знойности погоды. Зависит от высоты солнца над горизонтом, облачности и скорости ветра. Ночью, в пасмурную погоду, а также при ветре 12 м/с и более поправка равна нулю.
P - Атмосферное давление - приведенное к уровню моря атмосферное давление.
Po - Атмосферное давление - измеренное на уровне метеостанции атмосферное давление.
Tmin - Минимальная температура - минимум температуры воздуха на высоте 2 м над землей.
Tmax - Максимальная температура - максимум температуры воздуха на высоте 2 м над землей.
R - Количество осадков - Количество выпавших осадков за период времени, мм. При наведении курсора мыши на число - период времени, за который выпало указанное количество осадков.
R24 - Количество осадков - Количество выпавших осадков за 24 часа, мм.
S - Снежный покров - Высота снежного покрова, см. При наведении курсора мыши на число - состояние снежного покрова и степень покрытия местности в баллах.